San Antonio Stinson, TX

10:39 PM CDT on May 21, 2018 (GMT -0500)
Stinson Municipal

Weather History for KSSF - February, 2012

Change the Weather History Date:

Tuesday, February 7, 2012

  Actual Average Record
Temperature  
Mean Temperature 52 °F -  
Max Temperature 61 °F 62 °F 87 °F (2017)
Min Temperature 42 °F 44 °F 30 °F (2014)
Degree Days  
Heating Degree Days 14    
Growing Degree Days 2 (Base 50)    
Moisture  
Dew Point 43 °F    
Average Humidity 71    
Maximum Humidity 100    
Minimum Humidity 52    
Precipitation  
Precipitation 0.00 in - - ()
Sea Level Pressure  
Sea Level Pressure 30.22 in    
Wind  
Wind Speed 2 mph (NE)    
Max Wind Speed 12 mph    
Max Gust Speed 17 mph    
Visibility 9 miles    
Events      
Averages and records for this station are not official NWS values.
T = Trace of Precipitation, MM = Missing Value Source: NWS Daily Summary

Daily Weather History Graph

Daily Weather History Graph

Search for Another Location

Airport or City:

Astronomy

Feb. 07, 2012 Rise Set
Actual Time 7:19 AM CST 6:16 PM CST
Civil Twilight 6:54 AM CST 6:41 PM CST
Nautical Twilight 6:26 AM CST 7:09 PM CST
Astronomical Twilight 5:58 AM CST 7:37 PM CST
Moon 6:24 PM CST (2/7) 6:52 AM CST (2/7)
Length of Visible Light 11h 46m
Length of Day
10h 57m
Full, 100% of the Moon is Illuminated
Feb 7
Full
Feb 7
Full
Feb 14
Last Quarter
Feb 21
New
Feb 29
First Quarter

Hourly Weather History & Observations

Time (CST) Temp. Windchill Dew Point Humidity Pressure Visibility Wind Dir Wind Speed Gust Speed Precip Events Conditions
12:53 AM 48.0 °F - 42.1 °F 80% 30.21 in 10.0 mi Calm Calm - N/A   Overcast
1:53 AM 48.0 °F - 43.0 °F 83% 30.19 in 10.0 mi Calm Calm - N/A   Overcast
2:53 AM 44.1 °F - 42.1 °F 93% 30.19 in 9.0 mi Calm Calm - N/A   Partly Cloudy
3:53 AM 45.0 °F - 42.1 °F 90% 30.17 in 9.0 mi Calm Calm - N/A   Mostly Cloudy
4:53 AM 46.0 °F - 43.0 °F 89% 30.17 in 8.0 mi Calm Calm - N/A   Overcast
5:53 AM 44.1 °F - 42.1 °F 93% 30.18 in 7.0 mi Calm Calm - N/A   Partly Cloudy
6:53 AM 42.1 °F - 41.0 °F 96% 30.20 in 7.0 mi Calm Calm - N/A   Mostly Cloudy
7:01 AM 42.8 °F - 42.8 °F 100% 30.18 in 7.0 mi Calm Calm - N/A   Mostly Cloudy
7:53 AM 46.0 °F 43.9 °F 43.0 °F 89% 30.22 in 6.0 mi North 4.6 mph - N/A   Overcast
8:53 AM 48.0 °F - 42.1 °F 80% 30.23 in 7.0 mi NE 3.5 mph - N/A   Overcast
9:53 AM 50.0 °F - 42.1 °F 74% 30.25 in 7.0 mi Calm Calm - N/A   Overcast
10:53 AM 53.1 °F - 42.1 °F 66% 30.25 in 10.0 mi SE 3.5 mph - N/A   Overcast
11:53 AM 57.0 °F - 42.1 °F 57% 30.24 in 10.0 mi ENE 3.5 mph - N/A   Partly Cloudy
12:53 PM 57.9 °F - 42.1 °F 56% 30.22 in 10.0 mi Calm Calm - N/A   Overcast
1:53 PM 57.9 °F - 41.0 °F 53% 30.19 in 10.0 mi West 3.5 mph - N/A   Overcast
2:53 PM 60.1 °F - 43.0 °F 53% 30.17 in 10.0 mi Calm Calm - N/A   Overcast
3:53 PM 61.0 °F - 43.0 °F 52% 30.17 in 10.0 mi Variable 4.6 mph - N/A   Overcast
4:53 PM 61.0 °F - 43.0 °F 52% 30.18 in 10.0 mi Variable 3.5 mph - N/A   Overcast
5:53 PM 61.0 °F - 44.1 °F 54% 30.19 in 10.0 mi NNE 4.6 mph - N/A   Overcast
6:53 PM 59.0 °F - 46.0 °F 62% 30.21 in 10.0 mi Calm Calm - N/A   Overcast
7:53 PM 57.9 °F - 46.9 °F 67% 30.23 in 10.0 mi Calm Calm - N/A   Overcast
8:53 PM 57.9 °F - 46.9 °F 67% 30.27 in 10.0 mi ENE 3.5 mph - N/A   Overcast
9:53 PM 57.9 °F - 46.0 °F 65% 30.29 in 10.0 mi NNE 4.6 mph - N/A   Overcast
10:53 PM 57.9 °F - 46.0 °F 65% 30.31 in 10.0 mi NE 8.1 mph - N/A   Overcast
11:53 PM 57.9 °F - 44.1 °F 60% 30.32 in 10.0 mi NE 11.5 mph 17.3 mph N/A   Overcast